Weather in Verkhnedneprovskiy

Russia / Smolensk Oblast     54°58′53″N   33°20′41″E
temp.,
°C
wind,
m/s
gust,
m/s
humid.,
%
clouds,
%
prec.,
mm/h
press.,
hPa
HPBL,
m
9 december, thu
thu900:00−13ne51290100 0.0 1023278
03:00−13ne4119171 0.0 1023253
06:00−14ne412915 0.0 1024241
09:00−13ne412895 0.0 1025260
12:00−11ne411845 0.0 1025282
15:00−10ne411825 0.0 1025277
18:00−12ene412865 0.0 1027227
21:00−12ene412855 0.0 1027239
10 december, fri
fri1000:00−11e411845 0.0 1028243
03:00−11e412855 0.0 1028266
06:00−10e51387100 0.0 1027288
09:00−7e51488100 0.0 1027347
12:00−6ese61589100 0.0 1027369
15:00−4ese61592100 0.1 1026410
18:00−3ese71593100 0.0 1026416
21:00−3ese71693100 0.0 1025452
11 december, sat
sat1100:00−2ese71694100 0.0 1026483
03:00−1ese71694100 0.0 1026529
06:00−1ese71594100 0.0 1025474
09:00−2ese71593100 0.0 1026440
12:00−2ese61490100 0.0 1027424
15:00−2ese61389100 0.0 1026417
18:00−3ese61590100 0.0 1027404
21:00−3ese6159069 0.0 1027431
12 december, sun
sun1200:00−2se61493100 0.1 1027465
03:00−1se51192100 0.1 1028391
06:00−1se41093100 0.0 1028350
09:000se41094100 0.0 1029309
12:000se4994100 0.0 1030312
15:000se4891100 0.0 1029269
18:00−2se41091100 0.0 1030256
21:00−3ese3993100 0.0 1029223
13 december, mon
mon1300:00−3ese3991100 0.0 1029218
03:00−2ese3990100 0.0 1028240
06:00−3ese3789100 0.0 1028218
09:00−3ese3789100 0.0 1028198
12:00−2ese3686100 0.0 1027213
15:00−1ese268778 0.0 1027175
18:00−2e2691100 0.0 1027140
21:00−2ese3788100 0.0 1026219